Theta_e
310 313 314 312 310 306 310 313 311 315 340 336 335 335 336 337 338 333 340 338 329 325 324 328 333 337 338 339 337 340 340 341 340 339 337 335 332 331 330 327 328 327 325 326 325 326 331 329 329
311 313 310 305 309 309 310 311 314 327 338 336 335 337 341 345 339 339 338 336 331 326 321 322 325 329 333 335 336 336 334 334 337 338 338 338 336 334 331 329 329 329 328 326 328 328 331 331 332
313 314 306 306 306 311 312 312 324 331 331 327 338 337 338 342 339 339 338 335 334 331 324 320 319 323 324 323 324 326 329 332 334 336 337 338 338 337 336 335 334 331 328 326 328 328 329 328 326
313 306 303 306 311 312 312 314 316 324 329 332 335 339 336 336 339 339 337 337 335 328 325 321 320 319 318 317 316 315 316 317 320 325 331 334 335 335 334 333 330 330 325 327 329 331 329 327 326
309 302 305 307 310 311 312 322 325 329 330 330 330 334 338 336 339 338 337 337 330 328 326 325 323 323 322 322 321 320 320 322 323 324 322 324 328 331 331 329 327 329 327 328 328 329 328 330 328
306 303 306 308 309 310 310 315 319 328 328 329 329 330 333 336 339 338 337 337 328 328 327 328 327 327 324 323 324 324 324 324 325 325 324 324 325 326 328 330 331 331 332 332 328 326 326 326 326
306 304 307 308 309 310 311 310 310 311 318 324 326 337 334 333 339 338 338 336 331 334 333 333 333 331 328 324 322 324 324 324 325 324 324 325 325 324 325 327 328 329 329 327 327 328 327 324 325
303 303 307 307 308 309 308 311 310 310 312 323 323 329 337 333 338 339 339 338 335 334 334 334 334 333 330 325 326 324 324 324 325 325 325 325 326 326 325 326 326 327 327 327 328 328 329 329 329
304 304 307 311 310 311 308 312 310 310 318 315 321 322 324 335 335 337 337 338 338 335 335 335 335 334 331 328 329 328 328 326 327 325 326 326 327 325 325 324 323 323 324 325 326 327 327 327 326
305 305 310 310 310 310 310 311 310 311 316 325 327 324 329 334 333 331 332 335 338 338 337 336 335 335 333 330 330 330 330 329 328 327 327 328 327 325 324 321 319 320 320 321 322 322 322 323 323
310 311 311 313 310 310 313 314 312 309 315 321 325 324 329 333 333 331 332 335 336 337 337 333 332 332 332 331 330 331 330 330 329 328 327 327 327 325 324 322 320 317 315 314 315 315 316 318 317
312 313 313 314 313 313 314 313 314 312 312 312 321 320 328 330 328 327 328 330 331 333 327 324 324 328 329 329 329 331 331 330 329 328 326 326 323 321 318 319 318 317 315 312 314 315 315 316 317
315 314 314 314 314 314 313 314 313 313 311 311 319 322 327 328 328 327 327 327 328 324 323 321 319 324 321 325 328 331 330 329 329 327 324 323 321 320 318 318 318 316 316 317 317 314 313 313 312
317 316 315 315 314 314 315 314 314 313 310 310 316 321 323 323 325 322 322 324 324 323 320 319 319 319 320 324 326 327 328 327 328 324 322 319 319 320 320 319 320 320 318 316 311 307 305 303 303
317 317 314 315 315 315 312 312 312 311 309 310 313 315 315 315 319 317 321 325 323 321 319 319 318 318 318 320 320 321 320 318 317 316 316 314 314 318 319 319 320 319 316 313 310 306 304 303 303
314 311 312 313 314 313 311 311 311 311 309 309 308 311 312 311 313 316 319 320 320 319 318 319 317 316 317 317 317 319 319 316 313 311 311 311 312 313 315 315 315 315 313 310 308 304 304 304 303
310 313 313 314 313 315 313 311 310 310 309 309 308 308 310 311 311 313 314 315 315 315 317 316 314 314 315 313 313 314 314 313 312 311 310 310 312 312 311 310 311 311 310 306 305 305 304 303 303
314 313 314 316 314 314 315 311 311 311 308 308 308 308 310 311 312 311 312 313 313 315 315 313 312 312 310 310 310 310 310 310 310 310 310 310 312 313 311 309 310 311 308 305 305 305 304 303 303
314 315 316 315 314 316 316 313 313 310 309 308 305 307 309 311 309 310 311 312 313 313 313 312 312 311 310 310 309 309 309 309 309 308 308 309 308 311 312 309 307 308 307 305 305 305 304 303 303
315 316 315 315 314 316 315 315 309 309 310 308 308 309 309 310 308 309 310 312 312 312 312 311 312 311 311 311 311 310 310 309 308 308 308 307 307 307 312 310 307 306 306 306 305 305 304 304 304
314 316 316 316 315 315 315 316 312 311 311 310 310 308 308 309 309 309 310 311 311 311 312 312 312 312 312 311 311 310 309 308 309 309 308 308 307 307 310 310 309 307 305 306 305 305 304 304 302
316 314 315 316 318 319 315 318 314 312 313 312 309 308 309 309 309 309 311 311 312 313 312 312 312 311 311 310 310 309 308 307 309 310 310 310 309 307 306 307 310 308 305 305 305 303 303 303 301
317 315 316 318 317 317 316 315 315 311 313 312 311 311 310 310 310 311 310 311 311 311 312 312 312 312 312 311 311 311 310 310 310 309 308 308 307 306 306 306 308 307 304 303 303 301 296 296 295
315 317 316 316 316 319 318 316 313 313 313 314 313 312 311 310 309 311 310 311 312 312 312 312 311 311 310 310 309 308 308 308 308 308 308 308 308 307 305 305 305 305 303 299 296 296 297 298 297
315 316 316 316 316 319 317 315 313 313 313 313 313 312 310 309 308 308 309 310 311 310 310 311 311 310 309 309 308 307 307 307 306 306 306 307 306 304 302 303 301 299 297 296 298 298 298 298 298
317 317 315 319 317 318 316 318 315 313 313 310 312 311 312 311 308 308 309 309 309 310 310 310 309 308 308 308 305 304 305 304 304 304 304 304 303 299 297 296 297 297 297 297 296 296 296 295 293
319 318 316 314 305 312 317 317 314 313 315 315 313 312 310 309 308 309 309 309 309 310 310 309 308 308 308 303 304 304 304 303 303 303 302 301 299 295 296 297 298 298 299 298 296 294 292 293 293
317 316 318 314 314 323 321 319 318 316 317 314 313 311 309 308 308 308 308 310 310 309 309 309 308 307 306 304 305 305 303 301 301 301 300 298 295 296 297 300 299 297 295 294 293 293 292 292 292
317 317 317 318 316 323 319 320 315 315 314 314 311 310 309 309 308 307 308 309 309 309 309 308 307 307 304 304 304 303 302 298 296 297 295 295 296 296 295 296 294 293 293 293 293 292 292 291 290
317 317 316 319 319 314 311 318 314 314 312 311 311 310 309 309 308 307 309 309 309 308 308 307 307 306 303 304 303 302 301 297 294 294 294 295 295 294 293 293 292 292 292 292 292 291 291 290 289
Wind_Speed
11 6 3 5 4 5 2 3 4 4 4 4 1 8 6 2 1 3 8 12 13 14 14 11 12 8 10 12 11 10 10 9 7 6 5 7 8 10 12 13 14 7 4 9 9 4 11 11 9
12 5 3 2 5 5 4 4 6 2 7 8 7 3 5 3 3 6 10 16 14 14 13 11 12 9 8 12 11 10 10 7 6 4 6 6 7 8 8 10 10 10 10 8 4 2 7 7 8
5 2 4 5 4 3 1 0 4 1 1 0 4 4 3 2 3 10 14 18 13 11 11 10 12 11 10 10 9 7 7 6 6 5 5 5 5 5 6 8 10 12 10 5 2 2 7 10 11
2 6 5 5 5 1 1 0 5 4 2 6 2 6 2 2 9 11 19 15 12 13 12 11 10 10 9 8 7 7 6 5 5 5 5 5 5 5 5 7 7 9 6 7 9 7 6 8 8
4 3 5 4 3 3 2 5 4 4 2 5 1 3 2 3 15 23 19 14 14 15 13 12 10 8 7 6 4 5 4 4 3 3 4 4 4 4 4 3 2 2 4 7 8 9 9 10 11
4 3 5 2 3 2 2 2 5 4 2 2 6 5 0 5 21 18 16 14 14 15 14 12 10 8 6 4 3 2 3 2 2 1 1 2 3 3 2 2 3 4 6 7 7 8 10 14 16
6 4 3 2 3 6 1 1 5 5 4 2 7 5 0 5 20 19 16 15 17 15 13 13 11 9 7 4 4 4 4 4 3 3 3 3 3 2 1 1 1 1 3 6 7 8 7 7 8
5 4 3 3 2 3 4 1 3 5 1 1 2 5 5 8 19 20 18 18 17 17 15 14 11 8 6 5 3 3 4 4 4 4 4 4 2 1 1 0 1 2 2 4 4 4 4 3 5
4 5 3 1 1 4 5 2 5 2 5 1 3 5 4 20 19 22 19 16 16 16 15 13 11 7 6 6 5 4 3 2 2 3 4 4 2 0 1 1 2 3 4 4 5 5 4 5 5
6 5 6 2 2 3 4 3 2 4 3 4 2 4 14 22 22 22 20 20 21 20 18 14 11 9 8 8 7 6 7 5 4 3 5 5 4 4 3 4 5 6 5 5 5 6 7 8 8
2 4 4 4 4 5 2 1 1 6 2 5 8 7 8 11 17 18 22 27 27 19 17 13 11 11 12 11 12 11 9 8 7 6 7 8 8 8 9 9 8 7 6 7 7 6 6 8 10
6 1 4 2 5 3 2 1 1 2 6 9 12 11 8 8 11 15 20 25 23 22 18 15 12 12 11 8 12 13 11 12 11 9 8 9 10 10 10 9 9 8 7 7 8 8 9 8 8
4 2 2 2 1 2 2 4 3 5 6 4 6 8 10 9 15 11 14 19 28 25 21 17 13 12 8 8 10 12 12 14 13 12 11 11 11 11 11 10 10 8 7 7 6 8 10 11 11
1 3 5 3 4 2 2 3 1 6 2 8 9 11 9 9 15 9 14 19 29 25 21 18 14 11 9 9 9 8 10 12 14 13 12 12 12 14 13 12 12 10 8 6 7 6 6 7 9
3 5 6 2 3 5 5 5 6 3 3 9 10 8 9 10 15 19 24 29 30 26 23 20 14 9 7 8 8 9 9 11 13 14 14 13 13 14 13 14 14 13 10 8 7 6 5 5 5
5 5 6 7 1 4 4 9 11 2 5 11 10 9 9 10 11 14 22 27 27 24 23 17 12 9 9 8 7 8 10 11 12 13 15 15 14 14 15 15 15 13 12 12 10 7 5 5 6
7 1 3 5 5 4 3 8 10 5 6 11 8 9 7 4 6 8 13 20 20 20 21 16 11 9 8 7 7 9 11 12 14 16 18 18 17 17 16 17 16 15 14 14 13 10 8 8 7
3 3 4 3 6 7 5 9 10 7 6 9 5 5 2 3 3 8 9 12 16 19 18 13 11 10 9 7 9 11 14 16 17 19 22 21 22 21 20 20 19 19 18 18 17 16 12 10 9
1 2 2 4 3 7 5 9 12 8 4 5 6 8 7 6 3 8 9 14 19 18 15 13 10 9 10 8 10 13 17 19 21 21 23 25 27 27 26 25 24 23 24 23 22 20 17 15 11
2 2 4 5 5 3 7 9 8 7 4 4 9 7 8 6 5 8 15 16 15 14 12 12 10 9 9 9 10 14 17 22 24 25 27 29 30 30 33 33 31 30 30 28 26 26 21 18 13
4 2 3 5 7 1 6 6 6 5 5 6 5 5 5 7 8 6 9 10 9 12 14 12 11 11 12 14 15 20 23 25 28 32 33 36 35 35 39 40 39 36 35 36 34 31 26 19 11
4 2 2 6 4 2 4 3 5 4 2 3 6 4 4 6 4 4 7 9 10 11 8 12 14 14 15 15 17 21 26 26 35 36 37 40 39 38 41 44 46 43 36 33 31 26 22 15 11
6 7 4 2 3 2 8 4 6 5 2 0 2 4 5 4 4 5 7 6 6 8 8 10 11 12 12 15 18 22 25 28 32 34 37 38 38 39 39 40 44 40 28 22 17 14 10 7 7
8 4 5 4 2 2 1 2 6 4 4 1 3 4 2 5 6 2 5 4 9 9 11 12 9 10 14 19 22 27 31 35 32 31 31 33 33 31 31 35 28 23 17 17 9 5 5 6 9
8 6 4 5 5 4 1 2 6 4 4 2 1 3 6 5 4 3 1 7 10 11 9 8 11 18 24 29 29 29 30 30 27 27 28 28 27 22 14 16 21 22 18 11 6 13 15 18 21
3 3 4 3 1 5 6 3 4 1 4 6 1 2 4 6 5 5 8 8 7 6 10 14 19 25 28 27 26 25 26 28 29 29 24 21 12 12 20 23 16 12 8 14 17 17 17 17 14
3 4 2 6 2 3 4 5 5 5 6 5 5 7 6 7 6 5 5 7 9 15 16 17 22 27 25 22 25 27 29 29 30 29 19 9 9 20 19 12 9 12 15 23 21 13 9 14 18
5 2 4 4 3 3 5 6 5 4 8 14 7 6 5 5 5 4 4 8 17 18 20 19 24 23 20 21 23 28 29 27 23 16 9 12 19 13 6 3 14 18 12 7 10 13 15 16 17
5 4 5 3 3 3 3 6 5 6 7 11 5 5 3 0 1 4 6 13 20 20 21 18 20 19 16 17 24 27 30 20 11 11 13 16 9 2 5 8 3 4 8 11 14 14 15 17 20
4 5 4 3 4 3 2 7 3 2 6 5 2 6 6 3 4 5 11 17 19 22 21 21 19 17 17 23 27 30 31 18 14 14 12 10 5 2 2 3 3 6 10 13 14 17 18 20 22
Wind_Direction
343 343 336 46 60 70 275 309 343 108 52 325 99 99 134 102 95 168 154 150 135 129 127 136 125 113 115 107 98 100 110 129 142 172 166 183 172 171 165 153 161 159 322 300 310 259 210 212 186
339 324 43 79 82 69 311 310 5 45 151 144 102 75 41 82 83 120 126 150 132 114 104 125 111 115 118 109 101 103 106 114 135 165 182 195 193 189 191 198 218 235 307 306 338 248 215 208 207
329 345 80 91 101 89 198 17 141 47 110 23 98 49 66 83 76 139 141 143 127 112 117 116 113 118 111 98 97 99 102 114 126 149 164 178 207 210 235 247 251 269 292 306 264 257 246 242 255
229 12 34 82 113 189 127 113 168 165 105 48 76 75 9 257 150 144 143 134 114 118 117 112 107 101 96 96 104 108 109 117 135 144 139 153 193 215 229 252 259 255 261 268 274 278 267 299 283
55 59 56 77 29 340 342 100 109 85 71 350 344 101 51 41 125 144 147 135 120 126 119 112 108 99 89 82 87 92 113 118 112 127 134 157 182 212 240 265 265 240 231 266 277 271 278 266 278
43 93 54 72 319 262 10 108 91 77 12 189 76 87 48 132 142 153 146 134 125 121 131 125 118 101 101 130 135 155 160 150 160 128 85 150 182 208 239 249 257 265 282 291 299 291 285 277 271
110 81 135 146 8 352 95 256 100 134 161 242 147 99 197 183 163 163 156 142 145 144 144 146 143 144 146 137 179 194 212 210 205 204 195 209 180 179 240 0 8 305 298 308 312 318 329 310 313
106 95 90 353 42 288 317 10 162 132 160 108 185 149 185 207 175 169 169 167 165 164 164 158 163 162 155 162 171 208 226 225 232 231 222 231 240 215 209 214 239 271 277 287 298 310 315 295 297
127 64 75 138 138 274 313 75 341 88 100 339 4 148 203 159 163 176 169 166 178 183 181 181 179 179 176 181 175 186 218 211 260 251 250 262 236 289 278 312 312 299 281 262 275 283 276 280 277
76 91 196 203 183 223 325 49 319 73 31 16 27 27 156 156 158 157 166 180 193 192 189 193 195 200 204 201 203 211 209 225 231 230 225 244 259 282 271 275 278 269 267 283 280 268 273 281 286
140 141 184 227 228 192 185 317 276 131 89 206 184 188 168 163 173 163 173 183 189 189 190 190 192 207 212 212 214 219 219 233 233 229 237 249 252 263 270 265 271 270 264 262 262 283 295 290 303
75 211 194 188 175 171 195 174 266 179 219 203 195 175 168 174 191 204 179 189 183 182 186 184 190 192 188 199 209 222 230 232 231 237 240 236 248 254 254 253 263 264 273 276 277 281 291 298 297
79 276 231 323 285 238 9 283 271 255 216 198 180 174 177 191 206 217 205 201 183 183 188 187 188 192 201 209 214 220 231 233 234 228 231 239 251 256 258 251 258 258 253 264 278 300 305 307 316
293 313 314 295 267 280 198 270 299 266 229 180 173 195 200 197 211 218 214 193 188 191 193 192 189 195 199 202 203 214 224 227 225 230 233 248 255 258 258 255 255 251 259 263 287 298 306 318 325
34 353 334 265 233 234 151 310 237 279 195 212 188 192 208 213 205 205 196 189 193 197 195 194 185 190 203 213 223 227 232 235 236 238 245 258 257 248 251 253 255 254 253 258 266 279 283 298 311
43 45 6 318 81 22 101 260 272 263 198 234 213 193 205 216 208 207 197 197 197 198 195 187 187 197 210 227 237 244 256 264 256 253 257 260 259 253 255 251 246 244 241 255 252 258 269 295 311
16 357 317 321 57 10 200 268 260 310 242 248 202 201 209 267 291 256 218 207 205 199 184 180 185 206 214 233 247 257 264 262 267 259 253 257 258 252 252 253 244 242 248 253 247 248 262 286 298
286 347 322 271 312 348 301 269 279 274 228 248 162 148 192 224 8 316 240 201 186 177 174 177 191 202 217 234 265 273 270 268 270 273 268 264 258 247 248 249 242 231 236 239 240 240 248 262 273
216 202 261 271 296 352 289 285 290 302 56 84 122 138 123 96 21 75 128 150 150 162 177 190 200 216 229 237 256 266 277 280 271 263 262 258 266 258 249 244 243 232 231 233 234 234 237 242 250
6 324 307 293 288 359 327 306 336 33 32 28 129 132 127 91 72 108 131 142 157 176 192 208 227 234 246 264 289 283 289 288 287 280 266 258 259 254 248 247 238 236 232 228 226 226 226 231 227
317 208 274 256 323 271 334 333 1 13 58 56 42 55 60 142 151 161 169 176 192 204 215 229 252 257 265 271 277 279 277 277 280 285 276 272 258 248 244 246 244 240 232 229 226 222 219 212 204
317 217 282 297 20 262 42 286 15 339 79 81 37 76 168 167 160 166 194 208 222 238 257 268 272 276 283 292 294 289 285 277 279 283 290 291 283 262 252 249 245 242 234 231 231 222 219 200 176
256 310 275 232 190 68 347 65 293 334 330 142 91 181 182 126 129 168 199 236 264 276 298 306 303 316 332 336 324 308 294 293 294 292 297 299 291 278 260 254 246 242 238 234 206 170 152 149 152
296 0 40 53 88 34 131 113 316 328 282 8 234 219 228 220 221 211 63 68 69 59 54 47 29 1 341 334 331 325 317 314 311 311 309 307 303 296 275 251 236 225 185 148 123 100 87 18 345
15 33 3 7 8 225 356 52 230 291 291 241 153 219 241 300 316 287 245 85 62 59 43 19 352 339 342 337 330 325 321 317 314 314 308 303 298 288 263 204 162 148 137 123 20 339 319 321 316
344 79 131 194 311 285 332 149 236 219 326 35 165 351 303 348 349 47 85 69 75 27 358 349 350 346 342 340 336 330 324 315 315 315 308 305 276 156 137 128 118 102 71 354 351 347 329 329 322
333 34 176 101 17 28 290 301 281 213 45 62 276 292 16 25 31 70 65 57 17 350 337 338 347 342 339 338 341 342 331 316 309 306 305 289 182 144 128 108 52 355 327 327 321 333 319 293 290
88 136 32 16 47 306 302 283 237 310 342 356 337 74 55 25 50 53 39 4 348 345 339 329 337 333 330 336 340 336 325 302 289 276 271 176 150 134 133 300 328 342 321 296 276 281 287 297 301
3 25 42 110 130 221 297 260 223 352 6 317 75 45 19 66 41 321 313 330 340 334 336 320 326 323 313 325 330 329 324 288 251 210 167 150 152 69 355 337 345 246 269 273 283 296 303 303 307
120 147 113 123 274 235 175 265 331 206 15 100 43 360 348 329 276 279 312 323 321 319 319 327 324 316 318 328 330 326 317 275 214 183 171 166 150 42 332 352 327 281 286 294 297 302 302 301 302